GW7375 Weather Reports


time (UTC)temp
C
wind
direction
speed
KPH
gust
KPH
rain 1hr
cm
rain 24hr
cm
rain mn
cm
humidity
%
barometer
mb
20260503222542 22 261 11.3 25.7 0.00 0.00 0.00 28 1003.4
20260503222045 22 298 11.3 25.7 0.00 0.00 0.00 30 1003.5
20260503221557 22 273 9.7 20.9 0.00 0.00 0.00 30 1003.3
20260503221043 22 293 9.7 20.9 0.00 0.00 0.00 28 1003.3
20260503220543 23 250 8.0 19.3 0.00 0.00 0.00 29 1003.4
20260503215543 22 290 8.0 27.4 0.00 0.00 0.00 30 1003.5
20260503215042 22 298 11.3 27.4 0.00 0.00 0.00 29 1003.6
20260503214554 22 274 11.3 20.9 0.00 0.00 0.00 31 1003.5
20260503214042 22 269 9.7 25.7 0.00 0.00 0.00 31 1003.5
20260503213545 22 246 12.9 25.7 0.00 0.00 0.00 31 1003.5
20260503213049 22 234 11.3 25.7 0.00 0.00 0.00 32 1003.5
20260503212542 22 286 6.4 24.1 0.00 0.00 0.00 32 1003.6
20260503212042 22 355 11.3 24.1 0.00 0.00 0.00 31 1003.7
20260503211557 22 293 9.7 29.0 0.00 0.00 0.00 31 1003.8
20260503211042 22 240 14.5 29.0 0.00 0.00 0.00 32 1003.8
20260503210542 22 289 9.7 29.0 0.00 0.00 0.00 32 1003.8
20260503210055 22 279 9.7 29.0 0.00 0.00 0.00 31 1003.8
20260503205543 22 295 11.3 27.4 0.00 0.00 0.00 29 1003.7
20260503205041 22 290 14.5 27.4 0.00 0.00 0.00 30 1003.8
20260503204601 22 267 4.8 24.1 0.00 0.00 0.00 33 1003.9
20260503204044 22 264 6.4 24.1 0.00 0.00 0.00 35 1003.9
20260503203542 22 284 11.3 24.1 0.00 0.00 0.00 31 1003.9
20260503203059 22 252 9.7 30.6 0.00 0.00 0.00 33 1003.9
20260503202542 22 263 9.7 30.6 0.00 0.00 0.00 32 1004.0
20260503202041 22 250 11.3 25.7 0.00 0.00 0.00 32 1004.1
20260503201544 22 246 9.7 24.1 0.00 0.00 0.00 34 1004.2
20260503201042 22 279 12.9 24.1 0.00 0.00 0.00 31 1004.1
20260503200543 22 246 8.0 22.5 0.00 0.00 0.00 33 1004.2
20260503200047 22 246 12.9 22.5 0.00 0.00 0.00 33 1004.2
20260503195541 22 269 8.0 27.4 0.00 0.00 0.00 35 1004.1
20260503195042 22 267 12.9 27.4 0.00 0.00 0.00 33 1004.1
20260503194606 22 272 4.8 14.5 0.00 0.00 0.00 36 1004.1
20260503194043 23 289 6.4 20.9 0.00 0.00 0.00 35 1004.1
20260503193543 23 232 6.4 20.9 0.00 0.00 0.00 36 1004.2
20260503193048 22 285 3.2 16.1 0.00 0.00 0.00 38 1004.2
20260503192542 23 234 8.0 16.1 0.00 0.00 0.00 35 1004.3
20260503192042 23 194 4.8 11.3 0.00 0.00 0.00 34 1004.3
20260503191551 23 182 4.8 11.3 0.00 0.00 0.00 37 1004.4
20260503191042 23 263 3.2 11.3 0.00 0.00 0.00 34 1004.4
20260503190542 22 209 3.2 11.3 0.00 0.00 0.00 37 1004.5
20260503190058 22 267 1.6 11.3 0.00 0.00 0.00 38 1004.5
20260503185542 22 259 3.2 11.3 0.00 0.00 0.00 43 1004.6
20260503185042 22 207 4.8 16.1 0.00 0.00 0.00 40 1004.7
20260503184546 21 194 1.6 16.1 0.00 0.00 0.00 37 1004.7
20260503184040 21 248 3.2 12.9 0.00 0.00 0.00 39 1004.7
20260503183542 21 234 4.8 12.9 0.00 0.00 0.00 37 1004.7
20260503183103 21 250 3.2 11.3 0.00 0.00 0.00 40 1004.8
20260503182540 21 216 4.8 11.3 0.00 0.00 0.00 40 1004.8
20260503182042 21 244 1.6 11.3 0.00 0.00 0.00 39 1004.8
20260503181550 21 216 3.2 17.7 0.00 0.00 0.00 41 1005.0
20260503181044 20 329 4.8 17.7 0.00 0.00 0.00 39 1005.0
20260503180543 20 256 4.8 14.5 0.00 0.00 0.00 38 1005.1
20260503180059 20 249 6.4 14.5 0.00 0.00 0.00 38 1005.1
20260503175540 20 276 6.4 12.9 0.00 0.00 0.00 38 1005.2
20260503175042 20 254 6.4 12.9 0.00 0.00 0.00 42 1005.2
20260503174546 20 183 4.8 11.3 0.00 0.00 0.00 39 1005.2
20260503174042 20 215 1.6 11.3 0.00 0.00 0.00 40 1005.2
20260503173542 20 328 4.8 9.7 0.00 0.00 0.00 41 1005.2
20260503173120 20 230 4.8 17.7 0.00 0.00 0.00 40 1005.2
20260503172541 20 182 4.8 17.7 0.00 0.00 0.00 40 1005.4
20260503172041 19 233 3.2 12.9 0.00 0.00 0.00 41 1005.5
20260503171546 19 154 3.2 12.9 0.00 0.00 0.00 41 1005.5
20260503171045 19 181 4.8 17.7 0.00 0.00 0.00 42 1005.5
20260503170542 18 200 4.8 17.7 0.00 0.00 0.00 41 1005.5
20260503150542 16 260 9.7 24.1 0.00 0.00 0.00 45 1006.1
20260503131042 13 198 4.8 19.3 0.00 0.00 0.00 56 1006.9
20260503130540 13 172 3.2 14.5 0.00 0.00 0.00 58 1006.9
20260503130104 13 185 3.2 16.1 0.00 0.00 0.00 58 1007.0
20260503110543 12 133 1.6 8.0 0.00 0.00 0.00 56 1007.0
20260503081556 12 0 0.0 3.2 0.00 0.00 0.00 48 1009.4
20260503081043 12 0 0.0 6.4 0.00 0.00 0.00 48 1009.5
20260503080542 12 0 0.0 6.4 0.00 0.00 0.00 48 1009.6
20260503072541 12 0 0.0 3.2 0.00 0.00 0.00 49 1009.8
20260503072041 12 0 0.0 3.2 0.00 0.00 0.00 49 1009.9
20260503071553 12 0 0.0 6.4 0.00 0.00 0.00 48 1010.0
20260503071041 12 0 0.0 6.4 0.00 0.00 0.00 47 1010.0
20260503070541 12 161 0.0 4.8 0.00 0.00 0.00 48 1010.0
20260503055041 12 0 0.0 4.8 0.00 0.00 0.00 50 1010.6
20260503054550 12 51 0.0 6.4 0.00 0.00 0.00 50 1010.7
20260503054040 12 0 0.0 6.4 0.00 0.00 0.00 50 1010.7
20260503053543 11 0 0.0 4.8 0.00 0.00 0.00 50 1010.7
20260503053055 11 0 0.0 3.2 0.00 0.00 0.00 51 1010.7
20260503052543 11 0 0.0 3.2 0.00 0.00 0.00 51 1010.8
20260503052042 11 0 0.0 3.2 0.00 0.00 0.00 52 1010.8
20260503051553 11 0 0.0 3.2 0.00 0.00 0.00 52 1010.8
20260503051041 11 132 0.0 3.2 0.00 0.00 0.00 53 1010.8
20260503050541 11 0 0.0 3.2 0.00 0.00 0.00 52 1010.9
20260503050048 11 0 0.0 3.2 0.00 0.00 0.00 53 1010.9
20260503045541 11 0 0.0 3.2 0.00 0.00 0.00 54 1010.9
20260503045042 11 0 0.0 3.2 0.00 0.00 0.00 54 1010.9
20260503044555 11 0 0.0 3.2 0.00 0.00 0.00 55 1011.0
20260503044039 11 0 0.0 4.8 0.00 0.00 0.00 56 1011.0
20260503043542 11 0 0.0 4.8 0.00 0.00 0.00 58 1011.1
20260503043049 10 0 0.0 3.2 0.00 0.00 0.00 60 1011.1
20260503042542 10 0 0.0 3.2 0.00 0.00 0.00 64 1011.1
20260503042044 10 0 0.0 1.6 0.00 0.00 0.00 64 1011.2
20260503041549 10 0 0.0 0.0 0.00 0.00 0.00 67 1011.1
20260503041044 10 0 0.0 0.0 0.00 0.00 0.00 67 1011.2
20260503040542 10 0 0.0 0.0 0.00 0.00 0.00 68 1011.3
20260503040048 10 0 0.0 0.0 0.00 0.00 0.00 66 1011.3
20260503035544 10 0 0.0 0.0 0.00 0.00 0.00 66 1011.4
20260503035045 10 0 0.0 3.2 0.00 0.00 0.00 66 1011.3
20260503034550 10 0 0.0 3.2 0.00 0.00 0.00 67 1011.4
20260503034043 10 0 1.6 3.2 0.00 0.00 0.00 67 1011.5
20260503033544 10 0 0.0 0.0 0.00 0.00 0.00 67 1011.6
20260503033049 10 0 0.0 0.0 0.00 0.00 0.00 67 1011.6
20260503032543 10 0 0.0 0.0 0.00 0.00 0.00 65 1011.6
20260503032043 10 0 0.0 0.0 0.00 0.00 0.00 65 1011.8
20260503031557 10 0 0.0 0.0 0.00 0.00 0.00 64 1011.7
20260503031041 10 0 0.0 0.0 0.00 0.00 0.00 64 1011.9
20260503030543 10 0 0.0 0.0 0.00 0.00 0.00 63 1011.9
20260503030050 10 0 0.0 0.0 0.00 0.00 0.00 63 1011.9
20260503025543 11 0 0.0 0.0 0.00 0.00 0.00 63 1012.0
20260503025043 11 0 0.0 0.0 0.00 0.00 0.00 62 1012.0
20260503024548 11 0 0.0 0.0 0.00 0.00 0.00 62 1012.0
20260503024043 11 0 0.0 0.0 0.00 0.00 0.00 61 1012.0
20260503023543 11 0 0.0 0.0 0.00 0.00 0.00 59 1012.0
20260503023050 11 0 0.0 3.2 0.00 0.00 0.00 58 1012.1
20260503022543 12 0 0.0 3.2 0.00 0.00 0.00 58 1012.1
20260503022043 12 216 1.6 3.2 0.00 0.00 0.00 57 1012.1
20260503021550 12 0 0.0 3.2 0.00 0.00 0.00 56 1012.1
20260503021044 12 0 1.6 3.2 0.00 0.00 0.00 54 1012.1
20260503020543 12 0 0.0 3.2 0.00 0.00 0.00 52 1012.1
20260503020056 13 0 0.0 3.2 0.00 0.00 0.00 52 1012.1
20260503015543 13 0 0.0 1.6 0.00 0.00 0.00 50 1012.0
20260503015042 13 0 0.0 1.6 0.00 0.00 0.00 51 1012.0
20260503014555 13 0 0.0 1.6 0.00 0.00 0.00 48 1012.0
20260503014042 14 0 0.0 1.6 0.00 0.00 0.00 48 1012.0
20260503013543 14 0 0.0 1.6 0.00 0.00 0.00 45 1012.0
20260503013053 15 0 0.0 1.6 0.00 0.00 0.00 45 1012.0
20260503012543 15 0 0.0 1.6 0.00 0.00 0.00 44 1012.0
20260503012059 15 0 0.0 0.0 0.00 0.00 0.00 43 1012.0
20260503011550 15 0 0.0 1.6 0.00 0.00 0.00 42 1012.0
20260503011042 15 0 0.0 1.6 0.00 0.00 0.00 40 1012.1
20260503010544 15 0 0.0 4.8 0.00 0.00 0.00 39 1012.1
20260503010051 15 216 0.0 4.8 0.00 0.00 0.00 38 1012.1
20260503005542 15 229 0.0 4.8 0.00 0.00 0.00 38 1012.1
20260503005043 16 0 1.6 9.7 0.00 0.00 0.00 38 1012.2
20260503004547 16 248 1.6 9.7 0.00 0.00 0.00 37 1012.2
20260503004042 16 256 3.2 8.0 0.00 0.00 0.00 37 1012.1
20260503003543 16 221 3.2 8.0 0.00 0.00 0.00 36 1012.2
20260503003050 16 258 1.6 8.0 0.00 0.00 0.00 37 1012.2
20260503002542 16 215 4.8 8.0 0.00 0.00 0.00 36 1012.3
20260503002042 16 233 3.2 16.1 0.00 0.00 0.00 37 1012.2
20260503001608 16 250 4.8 16.1 0.00 0.00 0.00 36 1012.3
20260503001043 16 263 4.8 14.5 0.00 0.00 0.00 35 1012.4
20260503000543 16 286 6.4 17.7 0.00 0.00 0.00 34 1012.4
20260503000113 16 258 8.0 17.7 0.00 0.00 0.00 34 1012.3
20260502235545 16 313 9.7 17.7 0.00 0.00 0.00 36 1012.4
20260502235043 16 238 8.0 17.7 0.00 0.00 0.00 34 1012.4
20260502234554 16 265 6.4 17.7 0.00 0.00 0.00 35 1012.5
20260502234043 16 212 4.8 14.5 0.00 0.00 0.00 36 1012.5
20260502233543 16 276 6.4 12.9 0.00 0.00 0.00 34 1012.7
20260502233048 17 268 4.8 12.9 0.00 0.00 0.00 33 1012.7
20260502232542 17 195 4.8 14.5 0.00 0.00 0.00 33 1012.7
20260502232042 17 0 6.4 17.7 0.00 0.00 0.00 32 1012.7
20260502231615 17 243 6.4 19.3 0.00 0.00 0.00 32 1012.8
20260502231042 17 262 9.7 19.3 0.00 0.00 0.00 32 1012.8
20260502230542 17 243 8.0 24.1 0.00 0.00 0.00 31 1012.8
20260502230047 17 257 9.7 24.1 0.00 0.00 0.00 31 1012.8
20260502225543 17 238 11.3 24.1 0.00 0.00 0.00 31 1012.9
20260502225042 17 229 9.7 25.7 0.00 0.00 0.00 30 1013.0
20260502224556 17 202 12.9 25.7 0.00 0.00 0.00 31 1013.1
20260502224043 17 232 9.7 24.1 0.00 0.00 0.00 32 1013.2
20260502223543 17 236 6.4 24.1 0.00 0.00 0.00 32 1013.2
20260502223049 17 216 11.3 24.1 0.00 0.00 0.00 32 1013.2